Weather Roundup
Issued by NWS

Home | Current Version | Previous Version | Text Only | Print | Product List | Glossary On
Versions: 1 2 3 4 5 6 7 8 9 10 11 12 13 14 15 16 17 18 19 20 21 22 23 24 25 26 27 28 29 30 31 32 33 34 35 36 37 38 39 40 41 42 43 44 45 46 47 48 49 50
423
NZUS93 KARX 231410
HRRWXR

CURRENT HOURLY OBSERVATIONS ACROSS
MUCH OF THE UPPER MISSISSIPPI VALLEY
NATIONAL WEATHER SERVICE LA CROSSE WI
900 AM CDT MON OCT 23 2017


...SOUTHEAST MINNESOTA...


CITY           SKY/WX    TMP DP  RH WIND       PRES   REMARKS
ROCHESTER      SUNNY     48  39  71 SW10      29.82R
ROCHESTER/MAYO FAIR      50  36  59 S9        29.81S
WINONA         CLOUDY    50  37  62 S3        29.82S
AUSTIN         PTSUNNY   46  39  76 SW6       29.82F
ALBERT LEA     NOT AVBL
DODGE CENTER   PTSUNNY   48  37  66 SW12G20   29.81R
PRESTON        PTSUNNY   47  37  66 SW10      29.83R
OWATONNA       CLOUDY    48  39  71 W13       29.80R
FARIBAULT      SUNNY     50  39  66 SW7       29.79S
$$

...ELSEWHERE IN MINNESOTA...


CITY           SKY/WX    TMP DP  RH WIND       PRES   REMARKS
MINNEAPOLIS    MOSUNNY   52  39  61 W12       29.76F
INTNL FALLS    CLOUDY    48  45  89 SW7       29.60S
DULUTH         PTSUNNY   51  37  58 SW12      29.68S
RED WING       MOSUNNY   52  36  54 SE6       29.77S
REDWOOD FALLS  CLOUDY    53  39  59 NW16      29.83R
MANKATO        PTSUNNY   50  40  68 W13       29.82R
WORTHINGTON    PTSUNNY   51  40  65 NW17G23   29.90R
FAIRMONT       MOSUNNY   54  41  61 NW16      29.86R
$$

...SOUTHWEST WISCONSIN...


CITY           SKY/WX    TMP DP  RH WIND       PRES   REMARKS
LA CROSSE      CLOUDY    50  44  80 S15       29.82S
PRAIRIE DU CHI CLOUDY    45  42  89 CALM      29.86F
BOSCOBEL       FOG       42  41  96 CALM      29.87F VSB 1/4
LONE ROCK      FOG       41  41 100 CALM      29.85F VSB 1
PLATTEVILLE    CLOUDY    44  44 100 CALM      29.87F
FORT MC COY    MOSUNNY   41  40  95 CALM      29.85S
CAMP DOUGLAS   PTSUNNY   45  41  87 S7        29.84F
MAUSTON-NEW LI CLOUDY    47  41  77 SE5       29.83F HAZE
VIROQUA        FAIR      45  43  92 S9        29.83F
WIS DELLS      CLOUDY    43  42  98 CALM      29.85F
$$

...ELSEWHERE IN WISCONSIN...


CITY           SKY/WX    TMP DP  RH WIND       PRES   REMARKS
MILWAUKEE      CLOUDY    51  48  89 NE6       29.86F
MADISON        CLOUDY    44  43  96 CALM      29.86F
GREEN BAY      FOG       44  44 100 CALM      29.88F VSB 1/4
EAU CLAIRE     CLOUDY    47  41  80 S5        29.78S
BLACK RVR FLS  FAIR      36  36 100 CALM      29.82S
MEDFORD        PTSUNNY   42  38  88 SE8       29.81S
WAUSAU         MOSUNNY   41  40  96 SE6       29.83F
WIS RAPIDS     CLOUDY    43  41  93 S6        29.86F
MARSHFIELD     CLOUDY    43  39  86 S8        29.83R
RICE LAKE      MOSUNNY   47  40  77 S7        29.79R
$$

...NORTHEAST IOWA...


CITY           SKY/WX    TMP DP  RH WIND       PRES   REMARKS
WATERLOO       CLOUDY    43  39  86 S6        29.85R
DUBUQUE        CLOUDY    45  42  89 SW7       29.87F
DECORAH        CLOUDY    45  41  87 S10G17    29.83R
MASON CITY     SUNNY     48  38  68 VRB5      29.86R
CHARLES CITY   CLOUDY    48  41  76 SW7       29.85R
OELWEIN        PTSUNNY   45  45 100 S10       29.86F
$$

...ELSEWHERE IN IOWA...


CITY           SKY/WX    TMP DP  RH WIND       PRES   REMARKS
DES MOINES     PTSUNNY   48  40  73 SW7       29.87S
IOWA CITY      CLOUDY    47  43  86 SE5       29.90F
FORT DODGE     PTSUNNY   52  38  58 NW10G22   29.86R
MARSHALLTOWN   MOSUNNY   48  41  76 W7        29.84S
CEDAR RAPIDS   CLOUDY    46  43  89 S6        29.86F
$$

...NORTHERN ILLINOIS...


CITY           SKY/WX    TMP DP  RH WIND       PRES   REMARKS
CHICAGO-OHARE  LGT RAIN  52  49  89 N7        29.86F
CHICAGO-MIDWAY RAIN      54  53  97 N9        29.86S FOG
MOLINE         CLOUDY    48  46  93 W5        29.90S
ROCKFORD       CLOUDY    49  46  90 N5        29.89F
PEORIA         CLOUDY    50  48  93 NW7       29.88F
$$

NOTE: "FAIR" INDICATES FEW OR NO CLOUDS BELOW 12,000 FEET WITH NO
SIGNIFICANT WEATHER AND/OR OBSTRUCTIONS TO VISIBILITY. WIND
SPEEDS ARE IN MILES-PER-HOUR.




USA.gov is the U.S. government's official web portal to all federal, state and local government web resources and services.